Time,TemperatureF,DewpointF,PressureIn,WindDirection,WindDirectionDegrees,WindSpeedMPH,WindSpeedGustMPH,Humidity,HourlyPrecipIn,Conditions,Clouds,dailyrainin,SoftwareType,DateUTC
2013-10-27 00:00:00,72.5,67.4,30.02,SSW,211,0.0,3.0,84,0.00,FEW,,0.00,WeatherDisplay:10.37,2013-10-26 14:00:00,
2013-10-27 00:10:00,72.7,67.6,30.01,SSW,211,0.0,0.0,84,0.00,FEW,,0.00,WeatherDisplay:10.37,2013-10-26 14:10:00,
2013-10-27 00:15:00,72.9,67.8,30.01,SSW,211,0.0,3.0,84,0.00,FEW,,0.00,WeatherDisplay:10.37,2013-10-26 14:15:00,
2013-10-27 00:20:00,73.1,68.4,30.01,SSW,211,0.0,0.0,85,0.00,FEW,,0.00,WeatherDisplay:10.37,2013-10-26 14:20:00,
2013-10-27 00:25:00,73.2,68.4,30.01,SSW,211,0.0,1.0,85,0.00,FEW,,0.00,WeatherDisplay:10.37,2013-10-26 14:25:00,
2013-10-27 00:30:00,73.3,68.5,30.01,SSW,211,0.0,2.0,85,0.00,FEW,,0.00,WeatherDisplay:10.37,2013-10-26 14:30:00,
2013-10-27 00:35:00,73.3,68.5,30.00,SSW,211,0.0,1.0,85,0.00,FEW,,0.00,WeatherDisplay:10.37,2013-10-26 14:35:00,
2013-10-27 00:40:00,73.2,68.4,30.00,SSW,211,0.0,3.0,85,0.00,FEW,,0.00,WeatherDisplay:10.37,2013-10-26 14:40:00,
2013-10-27 00:45:00,73.0,68.2,30.00,SSW,212,0.0,1.0,85,0.00,FEW,,0.00,WeatherDisplay:10.37,2013-10-26 14:45:00,
2013-10-27 00:50:00,72.8,67.7,30.00,SSW,213,0.0,4.0,84,0.00,FEW,,0.00,WeatherDisplay:10.37,2013-10-26 14:50:00,
2013-10-27 00:55:00,72.7,67.6,30.00,SW,215,0.0,3.0,84,0.00,FEW,,0.00,WeatherDisplay:10.37,2013-10-26 14:55:00,
2013-10-27 01:00:00,72.6,67.5,30.00,SW,215,0.0,2.0,84,0.00,FEW,,0.00,WeatherDisplay:10.37,2013-10-26 15:00:00,
2013-10-27 01:10:00,72.5,67.4,29.99,SW,215,0.0,0.0,84,0.00,FEW,,0.00,WeatherDisplay:10.37,2013-10-26 15:10:00,
2013-10-27 01:15:00,72.4,67.3,29.99,SW,215,0.0,1.0,84,0.00,FEW,,0.00,WeatherDisplay:10.37,2013-10-26 15:15:00,
2013-10-27 01:20:00,72.4,67.6,29.99,SW,215,1.0,3.0,85,0.00,FEW,,0.00,WeatherDisplay:10.37,2013-10-26 15:20:00,
2013-10-27 01:25:00,72.4,67.6,29.99,SW,215,0.0,2.0,85,0.00,FEW,,0.00,WeatherDisplay:10.37,2013-10-26 15:25:00,
2013-10-27 01:30:00,72.4,67.6,29.99,SW,215,0.0,2.0,85,0.00,FEW,,0.00,WeatherDisplay:10.37,2013-10-26 15:30:00,
2013-10-27 01:35:00,72.3,67.5,29.99,SW,215,0.0,1.0,85,0.00,FEW,,0.00,WeatherDisplay:10.37,2013-10-26 15:35:00,
2013-10-27 01:40:00,72.2,67.4,29.98,SW,215,0.0,1.0,85,0.00,FEW,,0.00,WeatherDisplay:10.37,2013-10-26 15:40:00,
2013-10-27 01:45:00,72.1,67.0,29.98,SW,215,0.0,1.0,84,0.00,FEW,,0.00,WeatherDisplay:10.37,2013-10-26 15:45:00,
2013-10-27 01:50:00,72.1,67.3,29.98,SW,215,0.0,1.0,85,0.00,FEW,,0.00,WeatherDisplay:10.37,2013-10-26 15:50:00,
2013-10-27 01:55:00,71.9,67.2,29.98,SW,215,0.0,2.0,85,0.00,FEW,,0.00,WeatherDisplay:10.37,2013-10-26 15:55:00,
2013-10-27 02:00:00,71.9,67.1,29.98,SW,215,0.0,1.0,85,0.00,FEW,,0.00,WeatherDisplay:10.37,2013-10-26 16:00:00,
2013-10-27 02:10:00,71.7,66.9,29.97,SW,215,0.0,1.0,85,0.00,FEW,,0.00,WeatherDisplay:10.37,2013-10-26 16:10:00,
2013-10-27 02:15:00,71.6,66.8,29.97,SW,215,0.0,2.0,85,0.00,FEW,,0.00,WeatherDisplay:10.37,2013-10-26 16:15:00,
2013-10-27 02:20:00,71.6,66.8,29.97,SW,215,0.0,1.0,85,0.00,FEW,,0.00,WeatherDisplay:10.37,2013-10-26 16:20:00,
2013-10-27 02:25:00,71.6,66.8,29.97,SW,215,1.0,2.0,85,0.00,FEW,,0.00,WeatherDisplay:10.37,2013-10-26 16:25:00,
2013-10-27 02:30:00,71.6,66.8,29.97,SW,215,0.0,0.0,85,0.00,FEW,,0.00,WeatherDisplay:10.37,2013-10-26 16:30:00,
2013-10-27 02:35:00,71.5,66.8,29.97,SW,215,0.0,0.0,85,0.00,FEW,,0.00,WeatherDisplay:10.37,2013-10-26 16:35:00,
2013-10-27 02:40:00,71.4,66.7,29.97,SW,215,0.0,0.0,85,0.00,FEW,,0.00,WeatherDisplay:10.37,2013-10-26 16:40:00,
2013-10-27 02:45:00,71.3,66.6,29.96,SW,215,0.0,1.0,85,0.00,FEW,,0.00,WeatherDisplay:10.37,2013-10-26 16:45:00,
2013-10-27 02:50:00,71.2,66.5,29.96,SW,215,0.0,0.0,85,0.00,FEW,,0.00,WeatherDisplay:10.37,2013-10-26 16:50:00,
2013-10-27 02:55:00,71.2,66.4,29.96,SW,215,0.0,0.0,85,0.00,FEW,,0.00,WeatherDisplay:10.37,2013-10-26 16:55:00,
2013-10-27 03:00:00,71.1,66.4,29.96,SSW,212,1.0,5.0,85,0.00,FEW,,0.00,WeatherDisplay:10.37,2013-10-26 17:00:00,
2013-10-27 03:10:00,71.2,66.5,29.96,SSW,206,0.0,2.0,85,0.00,FEW,,0.00,WeatherDisplay:10.37,2013-10-26 17:10:00,
2013-10-27 03:15:00,71.2,66.5,29.96,SSW,206,0.0,1.0,85,0.00,FEW,,0.00,WeatherDisplay:10.37,2013-10-26 17:15:00,
2013-10-27 03:20:00,71.3,66.5,29.97,SSW,206,0.0,1.0,85,0.00,FEW,,0.00,WeatherDisplay:10.37,2013-10-26 17:20:00,
2013-10-27 03:25:00,71.3,66.6,29.97,SW,214,1.0,6.0,85,0.00,FEW,,0.00,WeatherDisplay:10.37,2013-10-26 17:25:00,
2013-10-27 03:30:00,71.4,66.7,29.97,SW,227,0.0,3.0,85,0.00,FEW,,0.00,WeatherDisplay:10.37,2013-10-26 17:30:00,
2013-10-27 03:35:00,71.4,66.7,29.97,SW,233,1.0,3.0,85,0.00,FEW,,0.00,WeatherDisplay:10.37,2013-10-26 17:35:00,
2013-10-27 03:40:00,71.4,66.7,29.97,SW,233,0.0,3.0,85,0.00,FEW,,0.00,WeatherDisplay:10.37,2013-10-26 17:40:00,
2013-10-27 03:45:00,71.3,66.6,29.97,SW,233,0.0,2.0,85,0.00,FEW,,0.00,WeatherDisplay:10.37,2013-10-26 17:45:00,
2013-10-27 03:50:00,71.2,66.5,29.97,SW,233,0.0,1.0,85,0.00,FEW,,0.00,WeatherDisplay:10.37,2013-10-26 17:50:00,
2013-10-27 03:55:00,71.2,66.5,29.97,SW,233,0.0,1.0,85,0.00,FEW,,0.00,WeatherDisplay:10.37,2013-10-26 17:55:00,
2013-10-27 04:00:00,71.1,66.7,29.97,SW,234,0.0,3.0,86,0.00,FEW,,0.00,WeatherDisplay:10.37,2013-10-26 18:00:00,
2013-10-27 04:05:00,71.1,66.7,29.97,SW,235,0.0,2.0,86,0.00,SCT,,0.00,WeatherDisplay:10.37,2013-10-26 18:05:00,
2013-10-27 04:15:00,71.0,66.6,29.97,SW,233,0.0,3.0,86,0.00,SCT,,0.00,WeatherDisplay:10.37,2013-10-26 18:15:00,
2013-10-27 04:20:00,70.9,66.5,29.97,SW,231,0.0,0.0,86,0.00,SCT,,0.00,WeatherDisplay:10.37,2013-10-26 18:20:00,
2013-10-27 04:25:00,70.9,66.5,29.97,SW,230,0.0,1.0,86,0.00,SCT,,0.00,WeatherDisplay:10.37,2013-10-26 18:25:00,
2013-10-27 04:30:00,70.9,66.5,29.97,SW,228,0.0,5.0,86,0.00,SCT,,0.00,WeatherDisplay:10.37,2013-10-26 18:30:00,
2013-10-27 04:35:00,70.9,66.5,29.97,SW,214,0.0,2.0,86,0.00,SCT,,0.00,WeatherDisplay:10.37,2013-10-26 18:35:00,
2013-10-27 04:40:00,70.9,66.5,29.97,SSW,206,0.0,1.0,86,0.00,SCT,,0.00,WeatherDisplay:10.37,2013-10-26 18:40:00,
2013-10-27 04:45:00,70.9,66.5,29.97,SSW,206,0.0,1.0,86,0.00,SCT,,0.00,WeatherDisplay:10.37,2013-10-26 18:45:00,
2013-10-27 04:50:00,70.9,66.5,29.97,SSW,207,1.0,3.0,86,0.00,SCT,,0.00,WeatherDisplay:10.37,2013-10-26 18:50:00,
2013-10-27 04:55:00,70.9,66.5,29.97,SSW,210,0.0,2.0,86,0.00,FEW,,0.00,WeatherDisplay:10.37,2013-10-26 18:55:00,
2013-10-27 05:00:00,70.9,66.5,29.97,SSW,212,0.0,2.0,86,0.00,FEW,,0.00,WeatherDisplay:10.37,2013-10-26 19:00:00,
2013-10-27 05:10:00,70.8,66.4,29.98,SSW,211,0.0,2.0,86,0.00,FEW,,0.00,WeatherDisplay:10.37,2013-10-26 19:10:00,
2013-10-27 05:15:00,70.8,66.4,29.97,SSW,211,0.0,2.0,86,0.00,FEW,,0.00,WeatherDisplay:10.37,2013-10-26 19:15:00,
2013-10-27 05:25:00,70.8,66.4,29.98,SSW,210,1.0,5.0,86,0.00,FEW,,0.00,WeatherDisplay:10.37,2013-10-26 19:25:00,
2013-10-27 05:30:00,70.8,66.4,29.98,SSW,211,0.0,2.0,86,0.00,FEW,,0.00,WeatherDisplay:10.37,2013-10-26 19:30:00,
2013-10-27 05:35:00,70.8,66.4,29.98,SSW,212,0.0,2.0,86,0.00,FEW,,0.00,WeatherDisplay:10.37,2013-10-26 19:35:00,
2013-10-27 05:40:00,70.8,66.4,29.98,SSW,211,0.0,2.0,86,0.00,FEW,,0.00,WeatherDisplay:10.37,2013-10-26 19:40:00,
2013-10-27 05:45:00,70.7,66.3,29.98,SW,219,0.0,4.0,86,0.00,FEW,,0.00,WeatherDisplay:10.37,2013-10-26 19:45:00,
2013-10-27 05:50:00,70.7,66.3,29.98,SW,227,1.0,4.0,86,0.00,FEW,,0.00,WeatherDisplay:10.37,2013-10-26 19:50:00,
2013-10-27 05:55:00,70.7,66.3,29.98,SW,215,0.0,2.0,86,0.00,SCT,,0.00,WeatherDisplay:10.37,2013-10-26 19:55:00,
2013-10-27 06:00:00,70.7,66.3,29.98,SSW,206,0.0,2.0,86,0.00,SCT,,0.00,WeatherDisplay:10.37,2013-10-26 20:00:00,
2013-10-27 06:10:00,70.8,66.4,29.99,SSW,207,0.0,2.0,86,0.00,SCT,,0.00,WeatherDisplay:10.37,2013-10-26 20:10:00,
2013-10-27 06:15:00,70.9,66.5,29.99,SSW,207,0.0,3.0,86,0.00,SCT,,0.00,WeatherDisplay:10.37,2013-10-26 20:15:00,
2013-10-27 06:20:00,71.0,66.6,29.99,SSW,206,0.0,3.0,86,0.00,SCT,,0.00,WeatherDisplay:10.37,2013-10-26 20:20:00,
2013-10-27 06:30:00,71.3,66.9,30.00,SSW,210,0.0,4.0,86,0.00,SCT,,0.00,WeatherDisplay:10.37,2013-10-26 20:30:00,
2013-10-27 06:35:00,71.6,67.2,30.00,SW,215,0.0,4.0,86,0.00,FEW,,0.00,WeatherDisplay:10.37,2013-10-26 20:35:00,
2013-10-27 06:40:00,71.8,67.4,30.00,SW,216,0.0,3.0,86,0.00,FEW,,0.00,WeatherDisplay:10.37,2013-10-26 20:40:00,
2013-10-27 06:45:00,72.0,67.3,30.00,SW,216,0.0,3.0,85,0.00,FEW,,0.00,WeatherDisplay:10.37,2013-10-26 20:45:00,
2013-10-27 06:50:00,72.3,67.6,30.00,SW,216,0.0,3.0,85,0.00,FEW,,0.00,WeatherDisplay:10.37,2013-10-26 20:50:00,
2013-10-27 06:55:00,72.6,67.8,30.00,SW,216,0.0,2.0,85,0.00,FEW,,0.00,WeatherDisplay:10.37,2013-10-26 20:55:00,
2013-10-27 07:00:00,72.7,67.6,30.01,SW,216,0.0,3.0,84,0.00,FEW,,0.00,WeatherDisplay:10.37,2013-10-26 21:00:00,
2013-10-27 07:05:00,73.1,68.0,30.01,SW,216,0.0,2.0,84,0.00,FEW,,0.00,WeatherDisplay:10.37,2013-10-26 21:05:00,
2013-10-27 07:10:00,73.6,68.5,30.01,SSW,209,1.0,4.0,84,0.00,FEW,,0.00,WeatherDisplay:10.37,2013-10-26 21:10:00,
2013-10-27 07:15:00,74.2,68.7,30.01,SSW,208,1.0,3.0,83,0.00,FEW,,0.00,WeatherDisplay:10.37,2013-10-26 21:15:00,
2013-10-27 07:20:00,74.9,69.1,30.01,SW,216,1.0,5.0,82,0.00,FEW,,0.00,WeatherDisplay:10.37,2013-10-26 21:20:00,
2013-10-27 07:25:00,75.5,69.2,30.01,SW,223,1.0,3.0,81,0.00,FEW,,0.00,WeatherDisplay:10.37,2013-10-26 21:25:00,
2013-10-27 07:30:00,76.2,69.6,30.02,SW,225,1.0,3.0,80,0.00,FEW,,0.00,WeatherDisplay:10.37,2013-10-26 21:30:00,
2013-10-27 07:35:00,76.9,69.9,30.02,SW,220,0.0,5.0,79,0.00,FEW,,0.00,WeatherDisplay:10.37,2013-10-26 21:35:00,
2013-10-27 07:40:00,77.6,70.2,30.02,SSW,211,0.0,4.0,78,0.00,FEW,,0.00,WeatherDisplay:10.37,2013-10-26 21:40:00,
2013-10-27 07:45:00,77.9,70.1,30.02,South,187,1.0,7.0,77,0.00,FEW,,0.00,WeatherDisplay:10.37,2013-10-26 21:45:00,
2013-10-27 07:50:00,78.0,70.2,30.02,SSW,199,1.0,5.0,77,0.00,FEW,,0.00,WeatherDisplay:10.37,2013-10-26 21:50:00,
2013-10-27 07:55:00,77.9,70.1,30.03,SW,231,0.0,5.0,77,0.00,FEW,,0.00,WeatherDisplay:10.37,2013-10-26 21:55:00,
2013-10-27 08:00:00,78.1,70.3,30.02,SW,215,1.0,5.0,77,0.00,FEW,,0.00,WeatherDisplay:10.37,2013-10-26 22:00:00,
2013-10-27 08:10:00,78.8,70.6,30.03,SSW,192,2.0,7.0,76,0.00,FEW,,0.00,WeatherDisplay:10.37,2013-10-26 22:10:00,
2013-10-27 08:15:00,79.3,71.0,30.03,SSE,168,1.0,5.0,76,0.00,FEW,,0.00,WeatherDisplay:10.37,2013-10-26 22:15:00,
2013-10-27 08:20:00,79.9,71.7,30.02,SSE,157,1.0,5.0,76,0.00,FEW,,0.00,WeatherDisplay:10.37,2013-10-26 22:20:00,
2013-10-27 08:25:00,80.5,71.4,30.03,South,181,1.0,7.0,74,0.00,FEW,,0.00,WeatherDisplay:10.37,2013-10-26 22:25:00,
2013-10-27 08:35:00,81.4,71.5,30.02,SSW,192,1.0,7.0,72,0.00,FEW,,0.00,WeatherDisplay:10.37,2013-10-26 22:35:00,
2013-10-27 08:40:00,81.7,71.8,30.03,South,190,1.0,5.0,72,0.00,FEW,,0.00,WeatherDisplay:10.37,2013-10-26 22:40:00,
2013-10-27 08:45:00,82.1,71.8,30.03,SSE,157,1.0,5.0,71,0.00,FEW,,0.00,WeatherDisplay:10.37,2013-10-26 22:45:00,
2013-10-27 08:50:00,82.7,71.9,30.03,SSE,150,2.0,10.0,70,0.00,FEW,,0.00,WeatherDisplay:10.37,2013-10-26 22:50:00,
2013-10-27 09:00:00,83.2,72.0,30.03,ESE,123,2.0,9.0,69,0.00,FEW,,0.00,WeatherDisplay:10.37,2013-10-26 23:00:00,
2013-10-27 09:10:00,83.5,71.8,30.03,SSE,153,2.0,7.0,68,0.00,FEW,,0.00,WeatherDisplay:10.37,2013-10-26 23:10:00,
2013-10-27 09:15:00,83.4,71.7,30.03,SSE,151,3.0,9.0,68,0.00,FEW,,0.00,WeatherDisplay:10.37,2013-10-26 23:15:00,
2013-10-27 09:20:00,83.0,71.8,30.03,SSE,160,2.0,7.0,69,0.00,FEW,,0.00,WeatherDisplay:10.37,2013-10-26 23:20:00,
2013-10-27 09:25:00,83.2,72.4,30.03,South,186,1.0,5.0,70,0.00,FEW,,0.00,WeatherDisplay:10.37,2013-10-26 23:25:00,
2013-10-27 09:30:00,83.8,72.1,30.03,SE,139,1.0,5.0,68,0.00,FEW,,0.00,WeatherDisplay:10.37,2013-10-26 23:30:00,
2013-10-27 09:35:00,84.0,71.9,30.03,ESE,123,3.0,7.0,67,0.00,FEW,,0.00,WeatherDisplay:10.37,2013-10-26 23:35:00,
2013-10-27 09:40:00,84.2,71.6,30.03,SE,145,2.0,7.0,66,0.00,FEW,,0.00,WeatherDisplay:10.37,2013-10-26 23:40:00,
2013-10-27 09:45:00,84.3,72.1,30.03,SE,125,0.0,7.0,67,0.00,FEW,,0.00,WeatherDisplay:10.37,2013-10-26 23:45:00,
2013-10-27 09:50:00,84.3,71.7,30.03,East,101,5.0,9.0,66,0.00,FEW,,0.00,WeatherDisplay:10.37,2013-10-26 23:50:00,
2013-10-27 09:55:00,84.5,71.4,30.03,East,96,5.0,10.0,65,0.00,SCT,,0.00,WeatherDisplay:10.37,2013-10-26 23:55:00,
2013-10-27 10:00:00,84.0,71.4,30.03,East,96,3.0,9.0,66,0.00,SCT,,0.00,WeatherDisplay:10.37,2013-10-27 00:00:00,
2013-10-27 10:10:00,84.1,71.5,30.03,East,100,7.0,12.0,66,0.00,SCT,,0.00,WeatherDisplay:10.37,2013-10-27 00:10:00,
2013-10-27 10:15:00,84.3,71.7,30.03,East,98,5.0,9.0,66,0.00,SCT,,0.00,WeatherDisplay:10.37,2013-10-27 00:15:00,
2013-10-27 10:25:00,84.9,70.4,30.03,East,96,5.0,10.0,62,0.00,SCT,,0.00,WeatherDisplay:10.37,2013-10-27 00:25:00,
2013-10-27 10:30:00,84.9,71.8,30.03,East,96,6.0,10.0,65,0.00,SCT,,0.00,WeatherDisplay:10.37,2013-10-27 00:30:00,
2013-10-27 10:35:00,84.6,72.0,30.03,East,100,3.0,12.0,66,0.00,SCT,,0.00,WeatherDisplay:10.37,2013-10-27 00:35:00,
2013-10-27 10:40:00,84.5,71.4,30.03,East,101,7.0,12.0,65,0.00,SCT,,0.00,WeatherDisplay:10.37,2013-10-27 00:40:00,
2013-10-27 10:45:00,83.9,70.4,30.03,East,100,3.0,12.0,64,0.00,SCT,,0.00,WeatherDisplay:10.37,2013-10-27 00:45:00,
2013-10-27 10:50:00,84.3,71.7,30.03,East,100,3.0,10.0,66,0.00,SCT,,0.00,WeatherDisplay:10.37,2013-10-27 00:50:00,
2013-10-27 10:55:00,84.3,72.1,30.03,East,99,2.0,12.0,67,0.00,SCT,,0.00,WeatherDisplay:10.37,2013-10-27 00:55:00,
2013-10-27 11:00:00,83.8,70.8,30.02,East,99,7.0,12.0,65,0.00,SCT,,0.00,WeatherDisplay:10.37,2013-10-27 01:00:00,
2013-10-27 11:10:00,83.2,70.7,30.02,East,101,10.0,14.0,66,0.00,FEW,,0.00,WeatherDisplay:10.37,2013-10-27 01:10:00,
2013-10-27 11:15:00,82.5,70.4,30.02,East,99,10.0,14.0,67,0.00,FEW,,0.00,WeatherDisplay:10.37,2013-10-27 01:15:00,
2013-10-27 11:20:00,82.2,71.0,30.02,East,99,10.0,15.0,69,0.00,FEW,,0.00,WeatherDisplay:10.37,2013-10-27 01:20:00,
2013-10-27 11:25:00,82.4,71.2,30.01,East,100,12.0,17.0,69,0.00,FEW,,0.00,WeatherDisplay:10.37,2013-10-27 01:25:00,
2013-10-27 11:30:00,82.5,72.1,30.01,East,95,13.0,15.0,71,0.00,FEW,,0.00,WeatherDisplay:10.37,2013-10-27 01:30:00,
2013-10-27 11:35:00,82.4,72.5,30.01,East,96,12.0,15.0,72,0.00,FEW,,0.00,WeatherDisplay:10.37,2013-10-27 01:35:00,
2013-10-27 11:40:00,82.5,70.9,30.01,East,101,10.0,15.0,68,0.00,FEW,,0.00,WeatherDisplay:10.37,2013-10-27 01:40:00,
2013-10-27 11:45:00,82.4,70.8,30.01,East,94,10.0,15.0,68,0.00,FEW,,0.00,WeatherDisplay:10.37,2013-10-27 01:45:00,
2013-10-27 11:50:00,82.7,71.5,30.01,East,93,9.0,13.0,69,0.00,FEW,,0.00,WeatherDisplay:10.37,2013-10-27 01:50:00,
2013-10-27 11:55:00,83.2,71.5,30.01,East,100,7.0,12.0,68,0.00,FEW,,0.00,WeatherDisplay:10.37,2013-10-27 01:55:00,
2013-10-27 12:00:00,83.4,71.3,30.01,East,101,10.0,13.0,67,0.00,FEW,,0.00,WeatherDisplay:10.37,2013-10-27 02:00:00,
2013-10-27 12:10:00,83.6,71.5,30.01,East,100,8.0,12.0,67,0.00,FEW,,0.00,WeatherDisplay:10.37,2013-10-27 02:10:00,
2013-10-27 12:15:00,83.7,72.4,30.01,East,101,2.0,12.0,69,0.00,FEW,,0.00,WeatherDisplay:10.37,2013-10-27 02:15:00,
2013-10-27 12:20:00,84.1,70.6,30.00,East,99,10.0,13.0,64,0.00,FEW,,0.00,WeatherDisplay:10.37,2013-10-27 02:20:00,
2013-10-27 12:25:00,83.5,71.4,30.00,East,100,12.0,16.0,67,0.00,FEW,,0.00,WeatherDisplay:10.37,2013-10-27 02:25:00,
2013-10-27 12:30:00,83.0,71.8,30.00,East,94,12.0,13.0,69,0.00,FEW,,0.00,WeatherDisplay:10.37,2013-10-27 02:30:00,
2013-10-27 12:35:00,82.8,72.0,30.00,East,91,8.0,13.0,70,0.00,FEW,,0.00,WeatherDisplay:10.37,2013-10-27 02:35:00,
2013-10-27 12:40:00,83.4,72.6,30.00,East,91,9.0,15.0,70,0.00,FEW,,0.00,WeatherDisplay:10.37,2013-10-27 02:40:00,
2013-10-27 12:45:00,83.1,71.0,30.00,East,95,12.0,14.0,67,0.00,FEW,,0.00,WeatherDisplay:10.37,2013-10-27 02:45:00,
2013-10-27 12:55:00,83.4,72.1,29.99,East,99,7.0,12.0,69,0.00,FEW,,0.00,WeatherDisplay:10.37,2013-10-27 02:55:00,
2013-10-27 13:00:00,83.5,71.3,29.99,East,99,2.0,13.0,67,0.00,FEW,,0.00,WeatherDisplay:10.37,2013-10-27 03:00:00,
2013-10-27 13:05:00,83.9,71.8,29.99,East,97,6.0,12.0,67,0.00,FEW,,0.00,WeatherDisplay:10.37,2013-10-27 03:05:00,
2013-10-27 13:10:00,84.1,71.0,29.99,East,97,7.0,10.0,65,0.00,FEW,,0.00,WeatherDisplay:10.37,2013-10-27 03:10:00,
2013-10-27 13:15:00,83.6,71.5,29.99,East,96,7.0,10.0,67,0.00,FEW,,0.00,WeatherDisplay:10.37,2013-10-27 03:15:00,
2013-10-27 13:20:00,83.7,70.7,29.98,East,95,7.0,12.0,65,0.00,FEW,,0.00,WeatherDisplay:10.37,2013-10-27 03:20:00,
2013-10-27 13:25:00,83.3,71.6,29.98,East,99,7.0,12.0,68,0.00,FEW,,0.00,WeatherDisplay:10.37,2013-10-27 03:25:00,
2013-10-27 13:30:00,83.7,70.6,29.98,East,100,7.0,12.0,65,0.00,FEW,,0.00,WeatherDisplay:10.37,2013-10-27 03:30:00,
2013-10-27 13:35:00,83.8,70.3,29.98,East,99,6.0,9.0,64,0.00,FEW,,0.00,WeatherDisplay:10.37,2013-10-27 03:35:00,
2013-10-27 13:40:00,83.5,70.9,29.98,East,98,6.0,12.0,66,0.00,FEW,,0.00,WeatherDisplay:10.37,2013-10-27 03:40:00,
2013-10-27 13:45:00,83.2,71.1,29.97,East,99,6.0,13.0,67,0.00,FEW,,0.00,WeatherDisplay:10.37,2013-10-27 03:45:00,
2013-10-27 13:50:00,83.8,71.2,29.98,ESE,102,6.0,10.0,66,0.00,FEW,,0.00,WeatherDisplay:10.37,2013-10-27 03:50:00,
2013-10-27 13:55:00,83.8,70.8,29.98,East,98,8.0,12.0,65,0.00,FEW,,0.00,WeatherDisplay:10.37,2013-10-27 03:55:00,
2013-10-27 14:00:00,83.2,70.7,29.97,East,98,5.0,12.0,66,0.00,FEW,,0.00,WeatherDisplay:10.37,2013-10-27 04:00:00,
2013-10-27 14:05:00,83.1,70.1,29.97,East,98,5.0,10.0,65,0.00,FEW,,0.00,WeatherDisplay:10.37,2013-10-27 04:05:00,
2013-10-27 14:10:00,83.2,70.6,29.97,East,98,8.0,12.0,66,0.00,FEW,,0.00,WeatherDisplay:10.37,2013-10-27 04:10:00,
2013-10-27 14:15:00,82.8,69.3,29.97,East,98,8.0,13.0,64,0.00,FEW,,0.00,WeatherDisplay:10.37,2013-10-27 04:15:00,
2013-10-27 14:20:00,83.1,71.5,29.97,East,98,8.0,13.0,68,0.00,FEW,,0.00,WeatherDisplay:10.37,2013-10-27 04:20:00,
2013-10-27 14:25:00,83.3,70.8,29.97,East,99,6.0,12.0,66,0.00,FEW,,0.00,WeatherDisplay:10.37,2013-10-27 04:25:00,
2013-10-27 14:30:00,83.0,71.4,29.97,East,100,10.0,13.0,68,0.00,FEW,,0.00,WeatherDisplay:10.37,2013-10-27 04:30:00,
2013-10-27 14:35:00,82.8,71.2,29.97,East,100,9.0,14.0,68,0.00,FEW,,0.00,WeatherDisplay:10.37,2013-10-27 04:35:00,
2013-10-27 14:45:00,83.5,71.4,29.97,East,100,8.0,12.0,67,0.00,FEW,,0.00,WeatherDisplay:10.37,2013-10-27 04:45:00,
2013-10-27 14:50:00,83.3,71.6,29.97,East,97,12.0,13.0,68,0.00,FEW,,0.00,WeatherDisplay:10.37,2013-10-27 04:50:00,
2013-10-27 14:55:00,82.8,70.7,29.96,East,98,10.0,15.0,67,0.00,FEW,,0.00,WeatherDisplay:10.37,2013-10-27 04:55:00,
2013-10-27 15:00:00,82.8,68.9,29.96,East,100,3.0,14.0,63,0.00,FEW,,0.00,WeatherDisplay:10.37,2013-10-27 05:00:00,
2013-10-27 15:10:00,82.3,72.0,29.96,East,98,12.0,15.0,71,0.00,FEW,,0.00,WeatherDisplay:10.37,2013-10-27 05:10:00,
2013-10-27 15:15:00,82.2,70.1,29.96,East,100,6.0,15.0,67,0.00,FEW,,0.00,WeatherDisplay:10.37,2013-10-27 05:15:00,
2013-10-27 15:20:00,82.6,70.1,29.96,East,101,3.0,14.0,66,0.00,FEW,,0.00,WeatherDisplay:10.37,2013-10-27 05:20:00,
2013-10-27 15:25:00,82.7,71.5,29.95,East,99,5.0,13.0,69,0.00,FEW,,0.00,WeatherDisplay:10.37,2013-10-27 05:25:00,
2013-10-27 15:30:00,83.1,70.6,29.96,East,100,2.0,9.0,66,0.00,FEW,,0.00,WeatherDisplay:10.37,2013-10-27 05:30:00,
2013-10-27 15:35:00,82.9,70.0,29.95,ESE,104,3.0,14.0,65,0.00,FEW,,0.00,WeatherDisplay:10.37,2013-10-27 05:35:00,
2013-10-27 15:40:00,83.2,70.6,29.96,ESE,103,2.0,10.0,66,0.00,FEW,,0.00,WeatherDisplay:10.37,2013-10-27 05:40:00,
2013-10-27 15:45:00,83.5,71.0,29.95,ESE,103,7.0,12.0,66,0.00,FEW,,0.00,WeatherDisplay:10.37,2013-10-27 05:45:00,
2013-10-27 15:50:00,83.3,69.9,29.95,ESE,102,2.0,10.0,64,0.00,FEW,,0.00,WeatherDisplay:10.37,2013-10-27 05:50:00,
2013-10-27 15:55:00,83.8,70.7,29.95,ESE,103,2.0,6.0,65,0.00,FEW,,0.00,WeatherDisplay:10.37,2013-10-27 05:55:00,
2013-10-27 16:00:00,83.8,70.3,29.96,East,97,3.0,9.0,64,0.00,FEW,,0.00,WeatherDisplay:10.37,2013-10-27 06:00:00,
2013-10-27 16:05:00,83.4,69.9,29.96,ESE,104,7.0,14.0,64,0.00,FEW,,0.00,WeatherDisplay:10.37,2013-10-27 06:05:00,
2013-10-27 16:10:00,83.0,69.1,29.96,ESE,107,1.0,14.0,63,0.00,FEW,,0.00,WeatherDisplay:10.37,2013-10-27 06:10:00,
2013-10-27 16:15:00,83.2,71.1,29.96,ESE,108,2.0,6.0,67,0.00,FEW,,0.00,WeatherDisplay:10.37,2013-10-27 06:15:00,
2013-10-27 16:20:00,83.4,69.0,29.96,ESE,120,1.0,9.0,62,0.00,FEW,,0.00,WeatherDisplay:10.37,2013-10-27 06:20:00,
2013-10-27 16:25:00,83.9,69.0,29.96,SE,140,1.0,7.0,61,0.00,FEW,,0.00,WeatherDisplay:10.37,2013-10-27 06:25:00,
2013-10-27 16:30:00,84.2,68.8,29.97,ESE,123,1.0,5.0,60,0.00,FEW,,0.00,WeatherDisplay:10.37,2013-10-27 06:30:00,
2013-10-27 16:35:00,83.7,69.8,29.97,ESE,107,1.0,12.0,63,0.00,FEW,,0.00,WeatherDisplay:10.37,2013-10-27 06:35:00,
2013-10-27 16:40:00,83.4,69.9,29.97,ESE,106,1.0,7.0,64,0.00,FEW,,0.00,WeatherDisplay:10.37,2013-10-27 06:40:00,
2013-10-27 16:45:00,83.1,71.0,29.97,East,98,2.0,9.0,67,0.00,FEW,,0.00,WeatherDisplay:10.37,2013-10-27 06:45:00,
2013-10-27 16:50:00,82.8,69.4,29.97,East,98,7.0,12.0,64,0.00,FEW,,0.00,WeatherDisplay:10.37,2013-10-27 06:50:00,
2013-10-27 16:55:00,82.4,68.5,29.97,ESE,112,2.0,7.0,63,0.00,FEW,,0.00,WeatherDisplay:10.37,2013-10-27 06:55:00,
2013-10-27 17:00:00,82.5,69.5,29.97,ESE,112,2.0,7.0,65,0.00,FEW,,0.00,WeatherDisplay:10.37,2013-10-27 07:00:00,
2013-10-27 17:05:00,82.3,70.2,29.97,East,99,3.0,6.0,67,0.00,FEW,,0.00,WeatherDisplay:10.37,2013-10-27 07:05:00,
2013-10-27 17:10:00,82.0,70.4,29.98,ESE,109,1.0,4.0,68,0.00,FEW,,0.00,WeatherDisplay:10.37,2013-10-27 07:10:00,
2013-10-27 17:20:00,81.9,70.7,29.98,ESE,122,1.0,7.0,69,0.00,FEW,,0.00,WeatherDisplay:10.37,2013-10-27 07:20:00,
2013-10-27 17:25:00,81.8,70.6,29.98,SE,127,2.0,5.0,69,0.00,FEW,,0.00,WeatherDisplay:10.37,2013-10-27 07:25:00,
2013-10-27 17:30:00,81.6,69.1,29.98,SSE,149,0.0,7.0,66,0.00,FEW,,0.00,WeatherDisplay:10.37,2013-10-27 07:30:00,
2013-10-27 17:35:00,81.7,69.2,29.99,SSE,163,0.0,3.0,66,0.00,FEW,,0.00,WeatherDisplay:10.37,2013-10-27 07:35:00,
2013-10-27 17:40:00,81.8,69.3,29.99,SE,138,2.0,6.0,66,0.00,FEW,,0.00,WeatherDisplay:10.37,2013-10-27 07:40:00,
2013-10-27 17:45:00,81.7,69.2,29.99,SE,126,0.0,4.0,66,0.00,FEW,,0.00,WeatherDisplay:10.37,2013-10-27 07:45:00,
2013-10-27 17:50:00,81.4,68.9,29.99,SE,134,1.0,4.0,66,0.00,FEW,,0.00,WeatherDisplay:10.37,2013-10-27 07:50:00,
2013-10-27 17:55:00,81.0,69.0,29.99,SE,139,1.0,3.0,67,0.00,FEW,,0.00,WeatherDisplay:10.37,2013-10-27 07:55:00,
2013-10-27 18:00:00,80.6,69.1,29.99,ESE,122,0.0,3.0,68,0.00,FEW,,0.00,WeatherDisplay:10.37,2013-10-27 08:00:00,
2013-10-27 18:10:00,80.0,69.3,29.99,SE,124,0.0,5.0,70,0.00,FEW,,0.00,WeatherDisplay:10.37,2013-10-27 08:10:00,
2013-10-27 18:15:00,79.7,69.1,29.99,SSE,167,1.0,3.0,70,0.00,FEW,,0.00,WeatherDisplay:10.37,2013-10-27 08:15:00,
2013-10-27 18:25:00,79.2,69.0,30.00,ESE,121,0.0,1.0,71,0.00,FEW,,0.00,WeatherDisplay:10.37,2013-10-27 08:25:00,
2013-10-27 18:30:00,79.0,69.2,30.00,SE,136,0.0,5.0,72,0.00,FEW,,0.00,WeatherDisplay:10.37,2013-10-27 08:30:00,
2013-10-27 18:35:00,78.7,68.9,30.00,SSE,153,1.0,3.0,72,0.00,FEW,,0.00,WeatherDisplay:10.37,2013-10-27 08:35:00,
2013-10-27 18:40:00,78.5,69.1,30.00,South,175,0.0,3.0,73,0.00,FEW,,0.00,WeatherDisplay:10.37,2013-10-27 08:40:00,
2013-10-27 18:45:00,78.3,69.0,30.00,SSW,192,0.0,3.0,73,0.00,FEW,,0.00,WeatherDisplay:10.37,2013-10-27 08:45:00,
2013-10-27 18:50:00,78.2,68.8,30.01,South,189,0.0,6.0,73,0.00,FEW,,0.00,WeatherDisplay:10.37,2013-10-27 08:50:00,
2013-10-27 18:55:00,78.1,68.8,30.01,South,173,2.0,6.0,73,0.00,FEW,,0.00,WeatherDisplay:10.37,2013-10-27 08:55:00,
2013-10-27 19:00:00,78.0,69.0,30.01,SSE,150,1.0,6.0,74,0.00,FEW,,0.00,WeatherDisplay:10.37,2013-10-27 09:00:00,
2013-10-27 19:10:00,77.8,68.8,30.01,SSE,156,1.0,4.0,74,0.00,FEW,,0.00,WeatherDisplay:10.37,2013-10-27 09:10:00,
2013-10-27 19:15:00,77.7,68.8,30.01,SSE,153,0.0,1.0,74,0.00,FEW,,0.00,WeatherDisplay:10.37,2013-10-27 09:15:00,
2013-10-27 19:20:00,77.6,69.0,30.01,SSE,157,0.0,3.0,75,0.00,FEW,,0.00,WeatherDisplay:10.37,2013-10-27 09:20:00,
2013-10-27 19:25:00,77.5,68.9,30.01,SSE,156,1.0,6.0,75,0.00,FEW,,0.00,WeatherDisplay:10.37,2013-10-27 09:25:00,
2013-10-27 19:30:00,77.4,68.9,30.01,SSE,158,1.0,4.0,75,0.00,FEW,,0.00,WeatherDisplay:10.37,2013-10-27 09:30:00,
2013-10-27 19:35:00,77.4,68.8,30.02,SSE,156,0.0,1.0,75,0.00,FEW,,0.00,WeatherDisplay:10.37,2013-10-27 09:35:00,
2013-10-27 19:40:00,77.3,68.8,30.02,SSE,150,0.0,2.0,75,0.00,FEW,,0.00,WeatherDisplay:10.37,2013-10-27 09:40:00,
2013-10-27 19:45:00,77.2,68.7,30.02,SSE,162,0.0,3.0,75,0.00,FEW,,0.00,WeatherDisplay:10.37,2013-10-27 09:45:00,
2013-10-27 19:50:00,77.1,68.9,30.02,South,173,1.0,4.0,76,0.00,FEW,,0.00,WeatherDisplay:10.37,2013-10-27 09:50:00,
2013-10-27 19:55:00,77.1,68.9,30.02,SSE,167,0.0,3.0,76,0.00,FEW,,0.00,WeatherDisplay:10.37,2013-10-27 09:55:00,
2013-10-27 20:00:00,77.0,68.9,30.02,SSE,162,0.0,6.0,76,0.00,FEW,,0.00,WeatherDisplay:10.37,2013-10-27 10:00:00,
2013-10-27 20:10:00,76.9,68.8,30.02,SSW,204,0.0,5.0,76,0.00,FEW,,0.00,WeatherDisplay:10.37,2013-10-27 10:10:00,
2013-10-27 20:15:00,76.9,68.8,30.02,South,186,1.0,5.0,76,0.00,FEW,,0.00,WeatherDisplay:10.37,2013-10-27 10:15:00,
2013-10-27 20:20:00,76.8,68.7,30.02,SSW,195,0.0,3.0,76,0.00,FEW,,0.00,WeatherDisplay:10.37,2013-10-27 10:20:00,
2013-10-27 20:25:00,76.7,68.6,30.02,SSW,202,1.0,3.0,76,0.00,FEW,,0.00,WeatherDisplay:10.37,2013-10-27 10:25:00,
2013-10-27 20:30:00,76.6,68.5,30.03,South,180,0.0,5.0,76,0.00,FEW,,0.00,WeatherDisplay:10.37,2013-10-27 10:30:00,
2013-10-27 20:35:00,76.5,68.4,30.02,SSE,150,0.0,1.0,76,0.00,FEW,,0.00,WeatherDisplay:10.37,2013-10-27 10:35:00,
2013-10-27 20:40:00,76.4,68.2,30.03,SE,142,0.0,1.0,76,0.00,FEW,,0.00,WeatherDisplay:10.37,2013-10-27 10:40:00,
2013-10-27 20:45:00,76.1,68.0,30.03,SE,144,0.0,1.0,76,0.00,FEW,,0.00,WeatherDisplay:10.37,2013-10-27 10:45:00,
2013-10-27 20:50:00,75.9,67.8,30.03,SE,145,0.0,2.0,76,0.00,FEW,,0.00,WeatherDisplay:10.37,2013-10-27 10:50:00,
2013-10-27 20:55:00,75.7,67.6,30.03,SE,145,0.0,1.0,76,0.00,FEW,,0.00,WeatherDisplay:10.37,2013-10-27 10:55:00,
2013-10-27 21:00:00,75.5,67.8,30.03,SE,145,0.0,2.0,77,0.00,FEW,,0.00,WeatherDisplay:10.37,2013-10-27 11:00:00,
2013-10-27 21:10:00,75.3,67.6,30.03,SE,146,0.0,0.0,77,0.00,FEW,,0.00,WeatherDisplay:10.37,2013-10-27 11:10:00,
2013-10-27 21:15:00,75.2,67.5,30.03,SE,146,0.0,0.0,77,0.00,FEW,,0.00,WeatherDisplay:10.37,2013-10-27 11:15:00,
2013-10-27 21:20:00,75.0,67.7,30.04,SE,146,0.0,1.0,78,0.00,FEW,,0.00,WeatherDisplay:10.37,2013-10-27 11:20:00,
2013-10-27 21:25:00,74.9,67.6,30.04,SE,146,0.0,1.0,78,0.00,FEW,,0.00,WeatherDisplay:10.37,2013-10-27 11:25:00,
2013-10-27 21:30:00,74.7,67.8,30.04,SE,146,0.0,1.0,79,0.00,FEW,,0.00,WeatherDisplay:10.37,2013-10-27 11:30:00,
2013-10-27 21:35:00,74.6,67.7,30.04,SSE,148,0.0,2.0,79,0.00,FEW,,0.00,WeatherDisplay:10.37,2013-10-27 11:35:00,
2013-10-27 21:40:00,74.5,67.6,30.04,SSE,151,0.0,0.0,79,0.00,FEW,,0.00,WeatherDisplay:10.37,2013-10-27 11:40:00,
2013-10-27 21:50:00,74.3,67.7,30.04,SSE,152,0.0,3.0,80,0.00,FEW,,0.00,WeatherDisplay:10.37,2013-10-27 11:50:00,
2013-10-27 21:55:00,74.2,67.6,30.04,SSE,152,0.0,0.0,80,0.00,FEW,,0.00,WeatherDisplay:10.37,2013-10-27 11:55:00,
2013-10-27 22:00:00,74.0,67.5,30.04,SSE,152,0.0,0.0,80,0.00,FEW,,0.00,WeatherDisplay:10.37,2013-10-27 12:00:00,
2013-10-27 22:10:00,73.8,67.6,30.04,SSE,152,0.0,1.0,81,0.00,FEW,,0.00,WeatherDisplay:10.37,2013-10-27 12:10:00,
2013-10-27 22:15:00,73.7,67.5,30.04,SSE,152,0.0,1.0,81,0.00,FEW,,0.00,WeatherDisplay:10.37,2013-10-27 12:15:00,
2013-10-27 22:20:00,73.7,67.5,30.04,SSE,152,0.0,2.0,81,0.00,FEW,,0.00,WeatherDisplay:10.37,2013-10-27 12:20:00,
2013-10-27 22:25:00,73.6,67.4,30.04,SSE,153,0.0,1.0,81,0.00,CLR,,0.00,WeatherDisplay:10.37,2013-10-27 12:25:00,
2013-10-27 22:30:00,73.5,67.3,30.05,SSE,153,0.0,1.0,81,0.00,CLR,,0.00,WeatherDisplay:10.37,2013-10-27 12:30:00,
2013-10-27 22:35:00,73.4,67.5,30.05,SSE,153,0.0,1.0,82,0.00,CLR,,0.00,WeatherDisplay:10.37,2013-10-27 12:35:00,
2013-10-27 22:40:00,73.2,67.4,30.04,SSE,160,0.0,3.0,82,0.00,CLR,,0.00,WeatherDisplay:10.37,2013-10-27 12:40:00,
2013-10-27 22:45:00,73.0,67.2,30.04,SSE,168,0.0,2.0,82,0.00,CLR,,0.00,WeatherDisplay:10.37,2013-10-27 12:45:00,
2013-10-27 22:50:00,72.9,67.1,30.04,South,175,0.0,2.0,82,0.00,CLR,,0.00,WeatherDisplay:10.37,2013-10-27 12:50:00,
2013-10-27 22:55:00,72.9,67.1,30.04,South,180,0.0,2.0,82,0.00,CLR,,0.00,WeatherDisplay:10.37,2013-10-27 12:55:00,
2013-10-27 23:00:00,72.9,67.1,30.04,South,180,1.0,3.0,82,0.00,CLR,,0.00,WeatherDisplay:10.37,2013-10-27 13:00:00,
2013-10-27 23:10:00,72.9,66.7,30.04,South,180,0.0,1.0,81,0.00,CLR,,0.00,WeatherDisplay:10.37,2013-10-27 13:10:00,
2013-10-27 23:15:00,72.9,66.7,30.04,South,182,0.0,3.0,81,0.00,CLR,,0.00,WeatherDisplay:10.37,2013-10-27 13:15:00,
2013-10-27 23:20:00,72.9,66.7,30.04,South,184,0.0,3.0,81,0.00,CLR,,0.00,WeatherDisplay:10.37,2013-10-27 13:20:00,
2013-10-27 23:25:00,72.9,66.7,30.04,South,188,0.0,2.0,81,0.00,CLR,,0.00,WeatherDisplay:10.37,2013-10-27 13:25:00,
2013-10-27 23:30:00,72.8,66.7,30.03,SSW,192,0.0,2.0,81,0.00,CLR,,0.00,WeatherDisplay:10.37,2013-10-27 13:30:00,
2013-10-27 23:35:00,72.8,66.6,30.03,SSW,193,0.0,2.0,81,0.00,CLR,,0.00,WeatherDisplay:10.37,2013-10-27 13:35:00,
2013-10-27 23:40:00,72.8,66.6,30.03,SSW,194,0.0,2.0,81,0.00,CLR,,0.00,WeatherDisplay:10.37,2013-10-27 13:40:00,
2013-10-27 23:45:00,72.7,66.5,30.03,SSW,194,0.0,1.0,81,0.00,CLR,,0.00,WeatherDisplay:10.37,2013-10-27 13:45:00,
2013-10-27 23:50:00,72.7,66.5,30.03,SSW,194,0.0,2.0,81,0.00,CLR,,0.00,WeatherDisplay:10.37,2013-10-27 13:50:00,
2013-10-27 23:55:00,72.7,66.5,30.03,SSW,194,0.0,3.0,81,0.00,CLR,,0.00,WeatherDisplay:10.37,2013-10-27 13:55:00,